Location: Cabri�res
(43.7840°N, 5.4986°E)
Time: 03:31:07
(UTC+00:00)

Cosmos 1697 Rocket - Pass Details

Date: 09 April 2020
Orbit: 831 x 845 km, 71.0° (Epoch: 02 June)

Event Time Altitude Azimuth Distance (km) Brightness Sun altitude
Rises 21:06:30 0° 336° (NNW) 3,411 6.9 -27.7°
Reaches altitude 10° 21:08:58 10° 339° (NNW) 2,473 6.0 -28.0°
Enters shadow 21:14:12 67° 31° (NNE) 917 2.8 -28.7°
